Coral Leaf — PHNI — position and weather

sailwx.info

Track history (hours):
 
Tides and Currents Weather Stations Pressure Air Temp Water Temp Dewpoint Dewpoint Depression Visibility Wind Speed Wind Dir Waves Ship Positions

Coral Leaf

Last reported at 2014-Oct-23 20:33 UTC. Time now 2014-Oct-23 20:37 UTC.
Position N 51°46' E 003°05'.

Length 108 m; draft 6.6 m.

Type: Ship (hazmat cat D). MMSI: 244036000.

Date/timePositionNaut miles runAvg speedWind from/ knotsBaromVisibWave heightAir tempDewpointWater temp
2014-Oct-23 20:33N 51°46' E 003°05'1312.8
2014-Oct-23 19:33N 51°50' E 002°45'4313.0
2014-Oct-23 16:13N 52°28' E 002°09'811.8
2014-Oct-23 15:33N 52°35' E 002°04'1111.4
2014-Oct-23 14:33N 52°45' E 001°55'1111.2
2014-Oct-23 13:33N 52°53' E 001°42'1111.0
2014-Oct-23 12:33N 53°01' E 001°30'1211.9
2014-Oct-23 11:33N 53°11' E 001°19'4912.3
2014-Oct-23 07:33N 53°51' E 000°32'1413.5
2014-Oct-23 06:32N 54°03' E 000°19'1414.1
2014-Oct-23 05:33N 54°15' E 000°07'1514.6
2014-Oct-23 04:33N 54°27' W 000°06'1515.1
2014-Oct-23 03:33N 54°40' W 000°20'1515.0
2014-Oct-23 02:33N 54°53' W 000°34'1514.7
2014-Oct-23 01:33N 55°05' W 000°47'1514.8
2014-Oct-23 00:32N 55°18' W 001°01'1414.5
2014-Oct-22 23:33N 55°30' W 001°15'1513.7
2014-Oct-22 22:29N 55°42' W 001°29'3113.1
2014-Oct-22 20:07N 56°04' W 002°09'712.7
2014-Oct-22 19:33N 56°07' W 002°21'1414.3
2014-Oct-22 18:33N 56°06' W 002°47'1313.4
2014-Oct-22 17:33N 56°03' W 003°10'5 4.2
2014-Oct-22 16:25N 56°02' W 003°19'0 0.0
2014-Oct-21 23:33N 56°02' W 003°19'4 4.4
2014-Oct-21 22:33N 56°03' W 003°11'5 5.5
2014-Oct-21 21:33N 56°06' W 003°03'2 2.1
2014-Oct-21 20:31N 56°08' W 003°02'0 0.0
2014-Oct-21 19:31N 56°08' W 003°02'0 0.0
2014-Oct-21 18:31N 56°08' W 003°02'0 0.0
2014-Oct-21 17:31N 56°08' W 003°02'0 0.0
2014-Oct-21 16:22N 56°08' W 003°02'0 0.0
2014-Oct-21 15:25N 56°08' W 003°02'0 0.0
2014-Oct-21 14:22N 56°08' W 003°02'0 0.0
2014-Oct-21 13:25N 56°08' W 003°02'0 0.0
2014-Oct-21 12:33N 56°08' W 003°02'1010.4
2014-Oct-21 11:33N 56°07' W 002°43'1212.3
2014-Oct-21 10:33N 56°06' W 002°21'1212.4
2014-Oct-21 09:33N 56°02' W 002°01'26313.1
2014-Oct-20 13:33N 54°44' E 005°20'7 7.0
2014-Oct-20 12:33N 54°42' E 005°32'7 7.4
2014-Oct-20 11:33N 54°42' E 005°45'8 7.5
2014-Oct-20 10:33N 54°41' E 005°58'32 7.9
2014-Oct-20 06:29N 54°31' E 006°51'7 7.7
2014-Oct-20 05:33N 54°29' E 007°02'8 8.2
2014-Oct-20 04:33N 54°25' E 007°15'9 9.1
2014-Oct-20 03:33N 54°18' E 007°24'8 7.8
2014-Oct-20 02:34N 54°12' E 007°34'8 8.4
2014-Oct-20 01:33N 54°08' E 007°46'1111.2
2014-Oct-20 00:33N 54°02' E 008°02'1313.3
2014-Oct-19 23:33N 53°59' E 008°24'1413.6
2014-Oct-19 22:33N 53°52' E 008°44'1313.1
2014-Oct-19 21:34N 53°53' E 009°06'1111.0
2014-Oct-19 20:32N 53°48' E 009°23'8 3.6
2014-Oct-19 18:14N 53°40' E 009°30'0 0.0
2014-Oct-19 17:30N 53°41' E 009°30'0 0.0
2014-Oct-19 16:33N 53°41' E 009°30'0 0.0
2014-Oct-19 15:32N 53°41' E 009°30'2 1.8
2014-Oct-19 14:32N 53°39' E 009°31'0 0.0
2014-Oct-18 14:29N 53°39' E 009°31'1 1.6
2014-Oct-18 13:33N 53°40' E 009°30'8 7.5
2014-Oct-18 12:32N 53°47' E 009°23'9 9.2
2014-Oct-18 11:33N 53°53' E 009°12'1111.0
2014-Oct-18 10:33N 53°50' E 008°54'1211.7
2014-Oct-18 09:33N 53°57' E 008°37'1313.1
2014-Oct-18 08:33N 53°59' E 008°15'5 4.7
2014-Oct-18 07:33N 54°02' E 008°09'0 0.1
2014-Oct-18 06:32N 54°02' E 008°09'0 0.0
2014-Oct-18 05:29N 54°02' E 008°09'0 0.0
2014-Oct-18 04:32N 54°02' E 008°09'4 3.9
2014-Oct-18 03:33N 54°01' E 008°03'1413.7
2014-Oct-18 02:33N 54°07' E 007°42'1413.9
2014-Oct-18 01:33N 54°08' E 007°18'4413.8
2014-Oct-17 22:23N 54°07' E 006°04'1113.3
2014-Oct-17 21:33N 54°05' E 005°45'1313.2
2014-Oct-17 20:33N 54°03' E 005°23'1313.2
2014-Oct-17 19:33N 54°01' E 005°00'1413.1
2014-Oct-17 18:30N 54°06' E 004°38'15213.6
2014-Oct-17 07:18N 54°37' E 000°23'912.7
2014-Oct-17 06:33N 54°38' E 000°07'1312.3
2014-Oct-17 05:29N 54°39' W 000°16'1011.4
2014-Oct-17 04:33N 54°40' W 000°34'1212.0
2014-Oct-17 03:33N 54°40' W 000°55'10 0.6
2014-Oct-16 09:25N 54°36' W 001°11'1 0.0
2014-Oct-15 06:20N 54°37' W 001°09'6 8.2
2014-Oct-15 05:33N 54°41' W 001°02'1 1.4
2014-Oct-15 04:33N 54°40' W 001°00'0 0.0
2014-Oct-15 03:33N 54°40' W 001°00'0 0.0
2014-Oct-15 02:29N 54°40' W 001°00'0 0.0
2014-Oct-15 01:32N 54°40' W 001°00'0 0.0
2014-Oct-15 00:32N 54°40' W 001°00'0 0.0
2014-Oct-14 23:32N 54°40' W 001°00'0 0.0
2014-Oct-14 22:32N 54°40' W 001°00'0 0.0
2014-Oct-14 21:32N 54°40' W 001°00'0 0.0
2014-Oct-14 20:33N 54°40' W 000°60'0 0.0
2014-Oct-14 19:33N 54°40' W 000°60'6 6.4
2014-Oct-14 18:33N 54°38' W 000°49'1312.7
2014-Oct-14 17:33N 54°33' W 000°29'2 2.5
2014-Oct-14 16:33N 54°32' W 000°26'3 2.9
2014-Oct-14 15:33N 54°34' W 000°28'3 3.2
2014-Oct-14 14:33N 54°37' W 000°32'4 3.6
2014-Oct-14 13:33N 54°40' W 000°34'3 3.3
2014-Oct-14 12:33N 54°44' W 000°35'4 3.5
2014-Oct-14 11:33N 54°40' W 000°32'4 4.0
2014-Oct-14 10:33N 54°37' W 000°29'3 2.8
2014-Oct-14 09:33N 54°34' W 000°28'1 1.2
2014-Oct-14 08:33N 54°33' W 000°27'4 3.7
2014-Oct-14 07:33N 54°36' W 000°32'8 7.6
2014-Oct-14 06:33N 54°40' W 000°43'1 0.8
2014-Oct-14 05:27N 54°40' W 000°44'1 0.8
2014-Oct-14 04:31N 54°41' W 000°46'3 2.9
2014-Oct-14 03:32N 54°42' W 000°50'1 1.2
2014-Oct-14 02:33N 54°41' W 000°52'10 9.8
2014-Oct-14 01:29N 54°41' W 000°34'1213.3
2014-Oct-14 00:34N 54°40' W 000°13'1413.9
2014-Oct-13 23:33N 54°39' E 000°11'1413.8
2014-Oct-13 22:33N 54°38' E 000°35'  
Track history (hours):
 
Tides and Currents Weather Stations Pressure Air Temp Water Temp Dewpoint Dewpoint Depression Visibility Wind Speed Wind Dir Waves Ship Positions

Coral Leaf

Last reported at 2014-Oct-23 20:33 UTC. Time now 2014-Oct-23 20:37 UTC.
Position N 51°46' E 003°05'.

Length 108 m; draft 6.6 m.

Type: Ship (hazmat cat D). MMSI: 244036000.

Date/timePositionNaut miles runAvg speedWind from/ knotsBaromVisibWave heightAir tempDewpointWater temp
2014-Oct-23 20:33N 51°46' E 003°05'1312.8
2014-Oct-23 19:33N 51°50' E 002°45'4313.0
2014-Oct-23 16:13N 52°28' E 002°09'811.8
2014-Oct-23 15:33N 52°35' E 002°04'1111.4
2014-Oct-23 14:33N 52°45' E 001°55'1111.2
2014-Oct-23 13:33N 52°53' E 001°42'1111.0
2014-Oct-23 12:33N 53°01' E 001°30'1211.9
2014-Oct-23 11:33N 53°11' E 001°19'4912.3
2014-Oct-23 07:33N 53°51' E 000°32'1413.5
2014-Oct-23 06:32N 54°03' E 000°19'1414.1
2014-Oct-23 05:33N 54°15' E 000°07'1514.6
2014-Oct-23 04:33N 54°27' W 000°06'1515.1
2014-Oct-23 03:33N 54°40' W 000°20'1515.0
2014-Oct-23 02:33N 54°53' W 000°34'1514.7
2014-Oct-23 01:33N 55°05' W 000°47'1514.8
2014-Oct-23 00:32N 55°18' W 001°01'1414.5
2014-Oct-22 23:33N 55°30' W 001°15'1513.7
2014-Oct-22 22:29N 55°42' W 001°29'3113.1
2014-Oct-22 20:07N 56°04' W 002°09'712.7
2014-Oct-22 19:33N 56°07' W 002°21'1414.3
2014-Oct-22 18:33N 56°06' W 002°47'1313.4
2014-Oct-22 17:33N 56°03' W 003°10'5 4.2
2014-Oct-22 16:25N 56°02' W 003°19'0 0.0
2014-Oct-21 23:33N 56°02' W 003°19'4 4.4
2014-Oct-21 22:33N 56°03' W 003°11'5 5.5
2014-Oct-21 21:33N 56°06' W 003°03'2 2.1
2014-Oct-21 20:31N 56°08' W 003°02'0 0.0
2014-Oct-21 19:31N 56°08' W 003°02'0 0.0
2014-Oct-21 18:31N 56°08' W 003°02'0 0.0
2014-Oct-21 17:31N 56°08' W 003°02'0 0.0
2014-Oct-21 16:22N 56°08' W 003°02'0 0.0
2014-Oct-21 15:25N 56°08' W 003°02'0 0.0
2014-Oct-21 14:22N 56°08' W 003°02'0 0.0
2014-Oct-21 13:25N 56°08' W 003°02'0 0.0
2014-Oct-21 12:33N 56°08' W 003°02'1010.4
2014-Oct-21 11:33N 56°07' W 002°43'1212.3
2014-Oct-21 10:33N 56°06' W 002°21'1212.4
2014-Oct-21 09:33N 56°02' W 002°01'26313.1
2014-Oct-20 13:33N 54°44' E 005°20'7 7.0
2014-Oct-20 12:33N 54°42' E 005°32'7 7.4
2014-Oct-20 11:33N 54°42' E 005°45'8 7.5
2014-Oct-20 10:33N 54°41' E 005°58'32 7.9
2014-Oct-20 06:29N 54°31' E 006°51'7 7.7
2014-Oct-20 05:33N 54°29' E 007°02'8 8.2
2014-Oct-20 04:33N 54°25' E 007°15'9 9.1
2014-Oct-20 03:33N 54°18' E 007°24'8 7.8
2014-Oct-20 02:34N 54°12' E 007°34'8 8.4
2014-Oct-20 01:33N 54°08' E 007°46'1111.2
2014-Oct-20 00:33N 54°02' E 008°02'1313.3
2014-Oct-19 23:33N 53°59' E 008°24'1413.6
2014-Oct-19 22:33N 53°52' E 008°44'1313.1
2014-Oct-19 21:34N 53°53' E 009°06'1111.0
2014-Oct-19 20:32N 53°48' E 009°23'8 3.6
2014-Oct-19 18:14N 53°40' E 009°30'0 0.0
2014-Oct-19 17:30N 53°41' E 009°30'0 0.0
2014-Oct-19 16:33N 53°41' E 009°30'0 0.0
2014-Oct-19 15:32N 53°41' E 009°30'2 1.8
2014-Oct-19 14:32N 53°39' E 009°31'0 0.0
2014-Oct-18 14:29N 53°39' E 009°31'1 1.6
2014-Oct-18 13:33N 53°40' E 009°30'8 7.5
2014-Oct-18 12:32N 53°47' E 009°23'9 9.2
2014-Oct-18 11:33N 53°53' E 009°12'1111.0
2014-Oct-18 10:33N 53°50' E 008°54'1211.7
2014-Oct-18 09:33N 53°57' E 008°37'1313.1
2014-Oct-18 08:33N 53°59' E 008°15'5 4.7
2014-Oct-18 07:33N 54°02' E 008°09'0 0.1
2014-Oct-18 06:32N 54°02' E 008°09'0 0.0
2014-Oct-18 05:29N 54°02' E 008°09'0 0.0
2014-Oct-18 04:32N 54°02' E 008°09'4 3.9
2014-Oct-18 03:33N 54°01' E 008°03'1413.7
2014-Oct-18 02:33N 54°07' E 007°42'1413.9
2014-Oct-18 01:33N 54°08' E 007°18'4413.8
2014-Oct-17 22:23N 54°07' E 006°04'1113.3
2014-Oct-17 21:33N 54°05' E 005°45'1313.2
2014-Oct-17 20:33N 54°03' E 005°23'1313.2
2014-Oct-17 19:33N 54°01' E 005°00'1413.1
2014-Oct-17 18:30N 54°06' E 004°38'15213.6
2014-Oct-17 07:18N 54°37' E 000°23'912.7
2014-Oct-17 06:33N 54°38' E 000°07'1312.3
2014-Oct-17 05:29N 54°39' W 000°16'1011.4
2014-Oct-17 04:33N 54°40' W 000°34'1212.0
2014-Oct-17 03:33N 54°40' W 000°55'10 0.6
2014-Oct-16 09:25N 54°36' W 001°11'1 0.0
2014-Oct-15 06:20N 54°37' W 001°09'6 8.2
2014-Oct-15 05:33N 54°41' W 001°02'1 1.4
2014-Oct-15 04:33N 54°40' W 001°00'0 0.0
2014-Oct-15 03:33N 54°40' W 001°00'0 0.0
2014-Oct-15 02:29N 54°40' W 001°00'0 0.0
2014-Oct-15 01:32N 54°40' W 001°00'0 0.0
2014-Oct-15 00:32N 54°40' W 001°00'0 0.0
2014-Oct-14 23:32N 54°40' W 001°00'0 0.0
2014-Oct-14 22:32N 54°40' W 001°00'0 0.0
2014-Oct-14 21:32N 54°40' W 001°00'0 0.0
2014-Oct-14 20:33N 54°40' W 000°60'0 0.0
2014-Oct-14 19:33N 54°40' W 000°60'6 6.4
2014-Oct-14 18:33N 54°38' W 000°49'1312.7
2014-Oct-14 17:33N 54°33' W 000°29'2 2.5
2014-Oct-14 16:33N 54°32' W 000°26'3 2.9
2014-Oct-14 15:33N 54°34' W 000°28'3 3.2
2014-Oct-14 14:33N 54°37' W 000°32'4 3.6
2014-Oct-14 13:33N 54°40' W 000°34'3 3.3
2014-Oct-14 12:33N 54°44' W 000°35'4 3.5
2014-Oct-14 11:33N 54°40' W 000°32'4 4.0
2014-Oct-14 10:33N 54°37' W 000°29'3 2.8
2014-Oct-14 09:33N 54°34' W 000°28'1 1.2
2014-Oct-14 08:33N 54°33' W 000°27'4 3.7
2014-Oct-14 07:33N 54°36' W 000°32'8 7.6
2014-Oct-14 06:33N 54°40' W 000°43'1 0.8
2014-Oct-14 05:27N 54°40' W 000°44'1 0.8
2014-Oct-14 04:31N 54°41' W 000°46'3 2.9
2014-Oct-14 03:32N 54°42' W 000°50'1 1.2
2014-Oct-14 02:33N 54°41' W 000°52'10 9.8
2014-Oct-14 01:29N 54°41' W 000°34'1213.3
2014-Oct-14 00:34N 54°40' W 000°13'1413.9
2014-Oct-13 23:33N 54°39' E 000°11'1413.8
2014-Oct-13 22:33N 54°38' E 000°35'  

Dump ship's entire track history